Location: Home
(42.5358°N, 72.7383°W)
Time: 19:41:53
(UTC-05:00)

Explorer 7 - Pass Details

Date: 02 December 2021
Orbit: 483 x 674 km, 50.3° (Epoch: 23 January)

Event Time Altitude Azimuth Distance (km) Brightness Sun altitude
Rises 06:32:47 0° 244° (WSW) 2,809 10.1 -5.7°
Reaches altitude 10° 06:35:08 10° 246° (WSW) 1,877 9.2 -5.3°
Maximum altitude 06:39:23 71° 331° (NNW) 582 6.8 -4.6°
Drops below altitude 10° 06:43:24 10° 56° (ENE) 1,769 9.9 -3.9°
Sets 06:45:34 0° 59° (ENE) 2,632 10.8 -3.6°
